Weather History for Bangkok (Don Mueang), Thailand

Change the Weather History Date:

Tuesday, January 22, 2013

  Actual Average Record
Temperature  
Mean Temperature 86 °F -  
Max Temperature 95 °F 90 °F 95 °F (2013)
Min Temperature 76 °F 73 °F 61 °F (2014)
Cooling Degree Days 20    
Growing Degree Days 36 (Base 50)    
Moisture  
Dew Point 68 °F    
Average Humidity 58    
Maximum Humidity 74    
Minimum Humidity 34    
Precipitation  
Precipitation 0.00 in 0.02 in - ()
Sea Level Pressure  
Sea Level Pressure 29.90 in    
Wind  
Wind Speed 3 mph ()    
Max Wind Speed 8 mph    
Max Gust Speed -    
Visibility 3.0 miles    
Events      
Averages and records for this station are not official NWS values.
T = Trace of Precipitation, MM = Missing Value Source: Averaged Metar Reports

Daily Weather History Graph

Daily Weather History Graph

Search for Another Location

Airport:

Trip Planner

Search our weather history database for the weather conditions in past years. The results will help you decide how hot, cold, wet, or windy it might be!

Date:

Astronomy

Jan. 22, 2013 Rise Set
Actual Time 6:45 AM ICT 6:12 PM ICT
Civil Twilight 6:23 AM ICT 6:35 PM ICT
Nautical Twilight 5:57 AM ICT 7:01 PM ICT
Astronomical Twilight 5:31 AM ICT 7:27 PM ICT
Moon 2:17 PM ICT (1/22) 2:35 AM ICT (1/22)
Length of Visible Light 12h 12m
Length of Day
11h 26m
Waxing Gibbous, 79% of the Moon is Illuminated
Jan 22
Waxing Gibbous
Jan 27
Full
Feb 3
Last Quarter
Feb 10
New
Feb 18
First Quarter

Hourly Weather History & Observations

Time (ICT) Temp. Heat Index Dew Point Humidity Pressure Visibility Wind Dir Wind Speed Gust Speed Precip Events Conditions
12:00 AM 82.4 °F 86.3 °F 69.8 °F 66% 29.92 in 3.1 mi SSE 2.3 mph - N/A   Mist
12:30 AM 80.6 °F 83.9 °F 69.8 °F 70% 29.92 in 3.1 mi Calm Calm - N/A   Mist
1:00 AM 81 °F - 69 °F 60% 29.95 in 3 mi Calm Calm - -   Mist
1:00 AM 80.6 °F 83.9 °F 69.8 °F 70% 29.92 in 3.1 mi Calm Calm - N/A   Mist
1:30 AM 80.6 °F 83.9 °F 69.8 °F 70% 29.92 in 3.1 mi Calm Calm - N/A   Mist
2:00 AM 80.6 °F 84.6 °F 71.6 °F 74% 29.92 in 2.5 mi Calm Calm - N/A   Mist
2:30 AM 80.6 °F 83.2 °F 68.0 °F 65% 29.89 in 2.5 mi SSW 3.5 mph - N/A   Mist
3:00 AM 80.6 °F 83.2 °F 68.0 °F 65% 29.89 in 2.5 mi Calm Calm - N/A   Mist
3:30 AM 78.8 °F - 68.0 °F 69% 29.89 in 2.5 mi NW 3.5 mph - N/A   Mist
4:00 AM 78.8 °F - 68.0 °F 69% 29.89 in 1.9 mi WNW 4.6 mph - N/A   Mist
4:30 AM 78.8 °F - 68.0 °F 69% 29.89 in 1.9 mi NW 4.6 mph - N/A   Mist
5:00 AM 77.0 °F - 68.0 °F 74% 29.89 in 1.9 mi NNW 4.6 mph - N/A   Mist
5:30 AM 77.0 °F - 68.0 °F 74% 29.92 in 1.9 mi NNW 5.8 mph - N/A   Mist
6:00 AM 77.0 °F - 68.0 °F 74% 29.92 in 1.9 mi NNW 4.6 mph - N/A   Mist
6:30 AM 77.0 °F - 68.0 °F 74% 29.92 in 1.9 mi NNW 3.5 mph - N/A   Mist
7:00 AM 77 °F - 68 °F 67% 29.95 in 2 mi NNW 5.8 mph - -   Mist
7:00 AM 77.0 °F - 68.0 °F 74% 29.92 in 1.9 mi NNW 5.8 mph - N/A   Mist
7:30 AM 77.0 °F - 68.0 °F 74% 29.95 in 1.9 mi North 3.5 mph - N/A   Mist
8:00 AM 77.0 °F - 68.0 °F 74% 29.95 in 2.5 mi North 3.5 mph - N/A   Mist
8:30 AM 78.8 °F - 68.0 °F 69% 29.98 in 2.5 mi NNE 3.5 mph - N/A   Mist
9:00 AM 78.8 °F - 66.2 °F 65% 29.98 in 2.5 mi NNE 3.5 mph - N/A   Mist
9:30 AM 80.6 °F 82.7 °F 66.2 °F 61% 29.98 in 2.5 mi NNE 3.5 mph - N/A   Mist
10:00 AM 82.4 °F 84.6 °F 66.2 °F 58% 29.98 in 3.1 mi North 4.6 mph - N/A   Haze
10:30 AM 84.2 °F 85.6 °F 64.4 °F 51% 29.98 in 3.1 mi NE 3.5 mph - N/A   Haze
11:00 AM 86.0 °F 87.3 °F 64.4 °F 48% 29.98 in 3.1 mi East 4.6 mph - N/A   Haze
11:30 AM 87.8 °F 89.4 °F 64.4 °F 46% 29.95 in 3.1 mi NNE 3.5 mph - N/A   Haze
12:00 PM 89.6 °F 91.1 °F 64.4 °F 43% 29.92 in 3.1 mi NNE 3.5 mph - N/A   Haze
12:30 PM 89.6 °F 92.2 °F 66.2 °F 46% 29.92 in 3.1 mi East 5.8 mph - N/A   Haze
1:00 PM 91 °F - 66 °F 34% 29.92 in 3 mi East 6.9 mph - -   Haze
1:00 PM 91.4 °F 94.0 °F 66.2 °F 43% 29.89 in 3.1 mi East 6.9 mph - N/A   Haze
1:30 PM 91.4 °F 94.0 °F 66.2 °F 43% 29.89 in 3.1 mi East 5.8 mph - N/A   Haze
2:00 PM 91.4 °F 94.0 °F 66.2 °F 43% 29.86 in 3.7 mi ESE 3.5 mph - N/A   Unknown
2:30 PM 93.2 °F 96.2 °F 66.2 °F 41% 29.83 in 3.7 mi ESE 4.6 mph - N/A   Unknown
3:00 PM 95.0 °F 97.0 °F 64.4 °F 36% 29.83 in 3.7 mi East 3.5 mph - N/A   Unknown
3:30 PM 95.0 °F 97.0 °F 64.4 °F 36% 29.83 in 3.7 mi SE 8.1 mph - N/A   Unknown
4:00 PM 95.0 °F 97.0 °F 64.4 °F 36% 29.83 in 3.7 mi SE 5.8 mph - N/A   Unknown
4:30 PM 95.0 °F 98.5 °F 66.2 °F 39% 29.83 in 3.7 mi SE 6.9 mph - N/A   Unknown
5:00 PM 93.2 °F 96.2 °F 66.2 °F 41% 29.83 in 3.7 mi SE 4.6 mph - N/A   Unknown
5:30 PM 91.4 °F 94.0 °F 66.2 °F 43% 29.83 in 3.7 mi SE 4.6 mph - N/A   Unknown
6:00 PM 89.6 °F 93.4 °F 68.0 °F 49% 29.83 in 3.7 mi SSE 4.6 mph - N/A   Unknown
6:30 PM 87.8 °F 91.4 °F 68.0 °F 52% 29.86 in 3.7 mi East 3.5 mph - N/A   Unknown
7:00 PM 88 °F - 69 °F 44% 29.88 in 4 mi West 4.6 mph - -   Haze
7:00 PM 87.8 °F 92.6 °F 69.8 °F 55% 29.86 in 3.7 mi West 4.6 mph - N/A   Unknown
7:30 PM 87.8 °F 92.6 °F 69.8 °F 55% 29.86 in 3.7 mi NW 5.8 mph - N/A   Unknown
8:00 PM 87.8 °F 93.8 °F 71.6 °F 58% 29.89 in 3.1 mi West 4.6 mph - N/A   Haze
8:30 PM 87.8 °F 92.6 °F 69.8 °F 55% 29.89 in 3.1 mi West 2.3 mph - N/A   Haze
9:00 PM 86.0 °F 91.8 °F 71.6 °F 62% 29.89 in 3.1 mi SW 5.8 mph - N/A   Haze
9:30 PM 86.0 °F 90.4 °F 69.8 °F 58% 29.92 in 3.1 mi SSW 4.6 mph - N/A   Haze
10:00 PM 84.2 °F 89.6 °F 71.6 °F 66% 29.92 in 3.1 mi SW 5.8 mph - N/A   Mist
10:30 PM 84.2 °F 89.6 °F 71.6 °F 66% 29.92 in 3.1 mi SSW 3.5 mph - N/A   Mist
11:00 PM 84.2 °F 89.6 °F 71.6 °F 66% 29.92 in 3.1 mi SSW 4.6 mph - N/A   Mist
11:30 PM 84.2 °F 89.6 °F 71.6 °F 66% 29.92 in 3.1 mi SSW 3.5 mph - N/A   Mist